Weather in Белые Воды

Kazakhstan     42°25′01″N   69°49′58″E
temp.,
°C
wind,
m/s
gust,
m/s
humid.,
%
clouds,
%
prec.,
mm/h
press.,
hPa
HPBL,
m
1 march, mon
mon123:000ese125846 0.0 102222
02:00+1ese2357100 0.0 102122
05:00+2ese2355100 0.0 102123
08:00+2ese3359100 0.0 102129
11:00+7ese226468 0.0 1020100
14:00+11sw25500 0.0 1019633
17:00+8e11640 0.0 101922
20:00+4ese33660 0.0 102027
2 march, tue
tue223:00+4se34510 0.0 102030
02:00+5ssw48480 0.0 1020104
05:00+4ssw410540 0.0 1021138
08:00+3sw376218 0.0 1023119
11:00+9wsw585554 0.0 1023554
14:00+10w4652100 0.0 1021728
17:00+8wnw3557100 0.0 1022369
20:00+5nw226589 0.0 102429
3 march, wed
wed323:00+3n227886 0.0 102530
02:00+2n2283100 0.0 102564
05:00+2n1297100 0.0 1025143
08:00+2nnw1297100 0.1 1026116
11:00+2n2396100 0.4 1025181
14:00+4nne2293100 0.1 1024201
17:00+5ne2283100 0.1 1023362
20:00+3e239299 0.0 102351
4 march, thu
thu423:00+3e238671 0.0 102237
02:00+3ese128135 0.0 102122
05:00+3e227529 0.0 102122
08:00+4ese226619 0.0 102024
11:00+11wsw374652 0.0 1019705
14:00+15sw9133960 0.0 10162494
17:00+13sw7125580 0.6 1015769
20:00+10wsw91481100 4.4 1017875
5 march, fri
fri523:00+5w71294100 8.9 1022751
02:00+1sw4698100 7.6 1025279
05:00+3ssw4686100 8.1 1029555
08:00+1wnw459864 0.2 1033249
11:00+1nnw119482 0.3 1032205
14:00+3ne337297 0.0 1029658
17:00+5ne466452 0.0 1027484
20:00+1ene49790 0.0 1025238